[[{"header":{"parameterUnit":"m.s-1","parameterCategory":1,"la1":30.2992,"la2":30.254,"lo1":-89.0895,"lo2":-89.0443,"dy":0.0025,"dx":0.0025,"nx":19,"ny":19,"refTime":"2026-04-20T09:00:00:Z","depth":0,"parameterNumber":2,"parameterNumberName":"U-component_of_WINDS"},"data":[0,0,0,-3.6886,-3.6894,-3.7266,-3.7267,-3.7778,-3.7782,0,0,0,0,0,0,0,0,0,0,0,-3.6793,-3.6797,-3.6885,-3.6895,-3.7265,-3.7267,-3.7777,-3.7782,0,0,0,0,0,0,0,0,0,0,0,-3.6791,-3.6796,-3.6801,-3.6896,-3.7265,-3.7267,-3.7776,-3.7484,0,0,0,0,0,0,0,0,0,0,-3.7118,-3.7047,-3.6795,-3.6801,-3.6898,-3.7265,-3.7267,-3.7469,-3.7502,-3.7623,0,-3.7732,0,-3.7765,-3.7819,-3.782,0,0,0,-3.6883,-3.702,-3.7104,-3.6801,-3.6902,-3.7264,-3.7095,-3.7487,-3.7524,-3.7667,-3.7739,-3.7757,-3.7774,-3.7822,-3.7825,-3.8556,-3.8559,0,0,-3.6863,-3.687,-3.7079,-3.7129,-3.7069,-3.7083,-3.7107,-3.7509,-3.7589,-3.774,-3.7768,-3.7782,-3.7826,-3.783,-3.8552,-3.8557,0,0,0,-3.6812,-3.6856,-3.693,-3.7109,-3.7173,-3.7094,-3.7121,-3.7571,-3.7595,-3.7774,-3.7788,-3.7829,-3.7835,-3.8548,-3.8554,-3.8758,0,0,0,-3.6799,-3.6826,-3.6921,-3.693,-3.7166,-3.7376,-3.7175,-3.7567,-3.7612,-3.7785,-3.7829,-3.7841,-3.8543,-3.8551,-3.8743,-3.8856,0,0,0,-3.6763,-3.6822,-3.6881,-3.6929,-3.7088,-3.7369,-3.7415,-3.7576,-3.7622,-3.7821,-3.7842,-3.854,-3.8549,-3.873,-3.8833,-3.9054,0,0,0,-3.6728,-3.7057,-3.6884,-3.7258,-3.7085,-3.749,-3.7412,-3.7714,-3.7909,-3.7832,-3.8544,-3.8553,-3.8725,-3.882,-3.9039,-3.9243,-3.9327,0,0,-3.7147,-3.7107,-3.7327,-3.7183,-3.7621,-3.7433,-3.7903,-3.8075,-3.8089,-3.8401,-3.8418,-3.8748,-3.8832,-3.9051,-3.9788,-3.9855,0,0,0,-3.7462,-3.7621,-3.7735,-3.7919,-3.8057,-3.8187,-3.8286,-3.8351,-3.8615,-3.8249,-3.8884,-3.8934,-3.9062,-3.916,-3.9217,-3.9329,-3.8597,-3.8596,-3.8595,-3.807,-3.8067,-3.8432,-3.8476,-3.8656,-3.8756,-3.8904,-3.9009,-3.8954,-3.9105,-3.9199,-3.9646,-3.976,-3.9803,-3.992,-3.9302,-3.9303,-3.9304,-3.9304,-3.8688,-3.8915,-3.8834,-3.9159,-3.9157,-3.9431,-3.9542,-3.9495,-3.9754,-3.9574,-3.9687,-3.9496,-3.9876,-3.9979,-3.932,-3.9317,-3.9315,-3.9314,-3.9313,-3.909,-3.9198,-3.9269,-3.9538,-3.9746,-3.9779,-4.0032,-4.002,-4.0011,-4.0122,-4.0224,-4.0221,-4.0221,-4.017,-4.0172,-4.0174,-4.0175,-4.0176,-4.0177,-3.948,-3.9553,-3.9766,-3.9942,-4.006,-4.0216,-4.032,-4.0439,-4.0568,-4.054,-4.054,-4.0476,-3.9911,-3.9773,-4.0201,-4.0197,-4.0194,-4.0192,-4.019,-4.0117,-3.9971,-4.03,-4.0419,-4.0627,-4.0838,-4.0817,-4.106,-4.1156,-4.1283,-4.1193,-4.0776,-4.0736,-4.0691,-4.0577,-4.1188,-4.1188,-4.1188,-4.1188,-4.046,-4.0437,-4.0772,-4.0964,-4.1151,-4.1167,-4.1546,-4.1632,-4.1699,-4.1759,-4.1668,-4.1514,-4.1468,-4.1456,-4.1394,-4.1288,-4.2066,-4.2067,-4.2068,-4.0855,-4.0849,-4.1171,-4.1231,-4.1393,-4.1534,-4.1891,-4.2119,-4.2164,-4.2103,-4.1808,-4.1771,-4.1522,-4.1439,-4.1376,-4.128,-4.1084,0,0]},{"header":{"parameterUnit":"m.s-1","parameterCategory":1,"la1":30.2992,"la2":30.254,"lo1":-89.0895,"lo2":-89.0443,"dy":0.0025,"dx":0.0025,"nx":19,"ny":19,"refTime":"2026-04-20T09:00:00:Z","depth":0,"parameterNumber":3,"parameterNumberName":"V-component_of_WINDS"},"data":[0,0,0,-1.0539,-1.0537,-1.0449,-1.0449,-1.0329,-1.0328,0,0,0,0,0,0,0,0,0,0,0,-1.0562,-1.0561,-1.0539,-1.0537,-1.0449,-1.0449,-1.0329,-1.0328,0,0,0,0,0,0,0,0,0,0,0,-1.0563,-1.0561,-1.056,-1.0536,-1.0449,-1.0449,-1.0329,-1.0398,0,0,0,0,0,0,0,0,0,0,-1.0484,-1.0504,-1.0562,-1.056,-1.0536,-1.0449,-1.0449,-1.0401,-1.0393,-1.0366,0,-1.0342,0,-1.0333,-1.0319,-1.0319,0,0,0,-1.0538,-1.051,-1.0489,-1.056,-1.0535,-1.0449,-1.0489,-1.0397,-1.0388,-1.0355,-1.034,-1.0336,-1.0331,-1.0318,-1.0318,-1.0154,-1.0154,0,0,-1.0543,-1.0545,-1.0495,-1.0483,-1.0498,-1.0492,-1.0486,-1.0392,-1.0375,-1.034,-1.0333,-1.0329,-1.0318,-1.0317,-1.0155,-1.0154,0,0,0,-1.0556,-1.0548,-1.0529,-1.0488,-1.0473,-1.0489,-1.0483,-1.0379,-1.0373,-1.0332,-1.0328,-1.0317,-1.0315,-1.0156,-1.0155,-1.0113,0,0,0,-1.0559,-1.0556,-1.0531,-1.0531,-1.0474,-1.0425,-1.0472,-1.0379,-1.0369,-1.0328,-1.0317,-1.0314,-1.0157,-1.0156,-1.0116,-1.0093,0,0,0,-1.0569,-1.0557,-1.0543,-1.0532,-1.0494,-1.0427,-1.0415,-1.0377,-1.0366,-1.0319,-1.0314,-1.0158,-1.0156,-1.0119,-1.0097,-1.0047,0,0,0,-1.0579,-1.0509,-1.0543,-1.0462,-1.0495,-1.0403,-1.0416,-1.0347,-1.0302,-1.0316,-1.0157,-1.0155,-1.012,-1.01,-1.0051,-1.0004,-0.9986,0,0,-1.0491,-1.0499,-1.0451,-1.0478,-1.0381,-1.0416,-1.0311,-1.0269,-1.0263,-1.019,-1.0186,-1.0115,-1.0098,-1.0048,-0.9887,-0.9873,0,0,0,-1.0423,-1.0389,-1.0363,-1.032,-1.0286,-1.0253,-1.0226,-1.021,-1.0148,-1.0227,-1.0086,-1.0075,-1.0046,-1.0023,-1.0011,-0.9984,-1.0146,-1.0146,-1.0146,-1.03,-1.0296,-1.0215,-1.0199,-1.0158,-1.0129,-1.0094,-1.0066,-1.0076,-1.0042,-1.0019,-0.9922,-0.9896,-0.9887,-0.9859,-0.9997,-0.9997,-0.9997,-0.9997,-1.0168,-1.0117,-1.0129,-1.0055,-1.0049,-0.9987,-0.9955,-0.9963,-0.9902,-0.994,-0.9914,-0.9953,-0.9871,-0.9846,-0.9994,-0.9994,-0.9995,-0.9995,-0.9995,-1.0085,-1.0059,-1.004,-0.9976,-0.9926,-0.9912,-0.9852,-0.985,-0.9848,-0.9823,-0.9796,-0.9797,-0.9794,-0.9811,-0.981,-0.981,-0.981,-0.981,-0.9809,-1.0004,-0.9985,-0.9935,-0.989,-0.9861,-0.9821,-0.9791,-0.9761,-0.9727,-0.973,-0.9729,-0.9739,-0.9866,-0.9895,-0.9804,-0.9805,-0.9806,-0.9806,-0.9806,-0.9867,-0.9897,-0.982,-0.979,-0.9736,-0.9684,-0.9683,-0.9621,-0.9597,-0.9566,-0.9581,-0.9676,-0.9683,-0.9693,-0.9717,-0.9585,-0.9585,-0.9585,-0.9585,-0.9794,-0.9798,-0.9716,-0.9668,-0.9621,-0.9611,-0.9519,-0.9494,-0.9472,-0.9455,-0.9474,-0.9508,-0.9518,-0.9518,-0.9532,-0.9554,-0.9384,-0.9384,-0.9383,-0.9708,-0.9706,-0.963,-0.961,-0.9566,-0.9528,-0.9441,-0.9383,-0.9365,-0.9375,-0.9441,-0.9449,-0.9503,-0.9522,-0.9532,-0.9553,-0.9595,0,0]}]]